BTK8825 WIDN-WIII

Flight info

Callsign BTK8825
Flight time 1h 12m
Altitude 37000
Route KIRDA W26 PKP B470 BUNIK
Aircraft A320/M-SDE3FGHIRWY/LB1

Departure

Time 2026-04-15 14:23
Airport Raja Haji Fisabilillah International Airport (WIDN)

Arrival

Time 2026-04-15 15:36
Airport Soekarno-Hatta International Airport (WIII)
Time Latitude Longitude Altitude Speed Heading
2026-04-15 14:06 0.92131 104.52759 33 ft 0 kts 313°
2026-04-15 14:16 0.92128 104.52762 34 ft 2 kts 312°
2026-04-15 14:16 0.92116 104.52777 10 ft 3 kts 302°
2026-04-15 14:16 0.92107 104.52794 34 ft 3 kts 283°
2026-04-15 14:16 0.92105 104.52812 33 ft 3 kts 248°
2026-04-15 14:17 0.92112 104.52823 32 ft 1 kts 223°
2026-04-15 14:17 0.92114 104.52825 32 ft 0 kts 223°
2026-04-15 14:19 0.92112 104.52824 32 ft 3 kts 221°
2026-04-15 14:20 0.92089 104.52802 33 ft 4 kts 221°
2026-04-15 14:20 0.92048 104.52793 34 ft 9 kts 187°
2026-04-15 14:20 0.91976 104.52786 34 ft 13 kts 186°
2026-04-15 14:20 0.91892 104.52768 34 ft 11 kts 194°
2026-04-15 14:21 0.91823 104.52751 34 ft 9 kts 195°
2026-04-15 14:21 0.91750 104.52729 35 ft 15 kts 200°
2026-04-15 14:21 0.91675 104.52685 33 ft 7 kts 264°
2026-04-15 14:21 0.91693 104.52686 33 ft 0 kts 45°
2026-04-15 14:22 0.91700 104.52693 33 ft 9 kts 45°
2026-04-15 14:22 0.91909 104.52887 33 ft 79 kts 43°
2026-04-15 14:22 0.92463 104.53399 35 ft 137 kts 43°
2026-04-15 14:23 0.93260 104.54112 378 ft 157 kts 41°
2026-04-15 14:23 0.94066 104.54837 1033 ft 157 kts 43°
2026-04-15 14:23 0.94924 104.55630 1304 ft 179 kts 43°
2026-04-15 14:23 0.95885 104.56521 1564 ft 202 kts 43°
2026-04-15 14:24 0.96976 104.57530 1861 ft 224 kts 43°
2026-04-15 14:24 0.98159 104.58627 2426 ft 236 kts 46°
2026-04-15 14:24 0.99063 104.59998 3129 ft 239 kts 73°
2026-04-15 14:24 0.99220 104.61621 3840 ft 239 kts 102°
2026-04-15 14:25 0.98566 104.63189 4240 ft 256 kts 131°
2026-04-15 14:25 0.97107 104.64236 4800 ft 264 kts 160°
2026-04-15 14:25 0.95352 104.64835 5563 ft 268 kts 162°
2026-04-15 14:25 0.93590 104.65423 6342 ft 272 kts 162°
2026-04-15 14:26 0.91780 104.66028 7076 ft 275 kts 162°
2026-04-15 14:26 0.89946 104.66642 7804 ft 279 kts 162°
2026-04-15 14:26 0.88084 104.67263 8535 ft 283 kts 162°
2026-04-15 14:26 0.86202 104.67894 9235 ft 287 kts 162°
2026-04-15 14:27 0.84313 104.68532 9941 ft 292 kts 161°
2026-04-15 14:27 0.82358 104.69194 10383 ft 305 kts 161°
2026-04-15 14:27 0.80261 104.69903 10537 ft 329 kts 161°
2026-04-15 14:27 0.78025 104.70657 10756 ft 347 kts 161°
2026-04-15 14:28 0.75712 104.71451 11263 ft 354 kts 160°
2026-04-15 14:28 0.73381 104.72294 11849 ft 358 kts 160°
2026-04-15 14:28 0.71058 104.73156 12456 ft 362 kts 159°
2026-04-15 14:28 0.68690 104.74044 13047 ft 365 kts 159°
2026-04-15 14:29 0.66291 104.74944 13624 ft 370 kts 159°
2026-04-15 14:29 0.63861 104.75849 14148 ft 373 kts 159°
2026-04-15 14:29 0.61418 104.76756 14681 ft 377 kts 159°
2026-04-15 14:29 0.58951 104.77669 15195 ft 380 kts 159°
2026-04-15 14:30 0.56454 104.78589 15729 ft 383 kts 159°
2026-04-15 14:30 0.53982 104.79499 16234 ft 386 kts 159°
2026-04-15 14:30 0.51448 104.80430 16755 ft 388 kts 159°
2026-04-15 14:30 0.48891 104.81369 17263 ft 391 kts 159°
2026-04-15 14:31 0.46326 104.82311 17765 ft 394 kts 159°
2026-04-15 14:31 0.43737 104.83265 18255 ft 397 kts 159°
2026-04-15 14:31 0.41130 104.84226 18676 ft 400 kts 159°
2026-04-15 14:31 0.38544 104.85179 19086 ft 402 kts 159°
2026-04-15 14:32 0.35909 104.86148 19491 ft 405 kts 159°
2026-04-15 14:32 0.33244 104.87127 19890 ft 408 kts 159°
2026-04-15 14:32 0.30567 104.88110 20297 ft 410 kts 159°
2026-04-15 14:32 0.27876 104.89097 20701 ft 413 kts 160°
2026-04-15 14:33 0.25172 104.90091 21087 ft 415 kts 159°
2026-04-15 14:33 0.22477 104.91085 21476 ft 418 kts 159°
2026-04-15 14:33 0.19728 104.92100 21851 ft 420 kts 159°
2026-04-15 14:33 0.16974 104.93117 22229 ft 423 kts 160°
2026-04-15 14:34 0.14202 104.94141 22617 ft 425 kts 160°
2026-04-15 14:34 0.11449 104.95158 22991 ft 427 kts 160°
2026-04-15 14:34 0.08657 104.96188 23357 ft 429 kts 160°
2026-04-15 14:34 0.05843 104.97225 23677 ft 432 kts 160°
2026-04-15 14:35 0.03007 104.98269 23981 ft 434 kts 160°
2026-04-15 14:35 0.00165 104.99312 24297 ft 435 kts 160°
2026-04-15 14:35 -0.02661 105.00313 24605 ft 437 kts 161°
2026-04-15 14:35 -0.05555 105.01289 24910 ft 438 kts 161°
2026-04-15 14:36 -0.08472 105.02244 25203 ft 440 kts 161°
2026-04-15 14:36 -0.11397 105.03194 25490 ft 442 kts 161°
2026-04-15 14:36 -0.14290 105.04137 25770 ft 444 kts 161°
2026-04-15 14:36 -0.17243 105.05110 26052 ft 445 kts 161°
2026-04-15 14:37 -0.20190 105.06093 26339 ft 447 kts 161°
2026-04-15 14:37 -0.22143 105.06749 26529 ft 448 kts 161°
2026-04-15 14:37 -0.25106 105.07745 26812 ft 450 kts 161°
2026-04-15 14:37 -0.28081 105.08745 27089 ft 451 kts 161°
2026-04-15 14:38 -0.32038 105.10075 27454 ft 454 kts 160°
2026-04-15 14:38 -0.34068 105.10756 27640 ft 455 kts 160°
2026-04-15 14:38 -0.37038 105.11752 27896 ft 457 kts 160°
2026-04-15 14:38 -0.40055 105.12763 28172 ft 457 kts 161°
2026-04-15 14:39 -0.43081 105.13775 28437 ft 459 kts 161°
2026-04-15 14:39 -0.46117 105.14788 28697 ft 460 kts 161°
2026-04-15 14:39 -0.49165 105.15806 28941 ft 462 kts 161°
2026-04-15 14:39 -0.52227 105.16825 29186 ft 463 kts 161°
2026-04-15 14:40 -0.55253 105.17831 29412 ft 465 kts 161°
2026-04-15 14:40 -0.58367 105.18869 29647 ft 466 kts 160°
2026-04-15 14:40 -0.61418 105.19892 29875 ft 468 kts 160°
2026-04-15 14:40 -0.64516 105.20935 30135 ft 468 kts 160°
2026-04-15 14:41 -0.67599 105.21970 30427 ft 467 kts 160°
2026-04-15 14:41 -0.70643 105.22990 30720 ft 466 kts 160°
2026-04-15 14:41 -0.73719 105.24018 31009 ft 465 kts 161°
2026-04-15 14:41 -0.76782 105.25039 31299 ft 463 kts 161°
2026-04-15 14:42 -0.79843 105.26060 31593 ft 462 kts 161°
2026-04-15 14:42 -0.82901 105.27082 31890 ft 461 kts 161°
2026-04-15 14:42 -0.85942 105.28099 32180 ft 460 kts 161°
2026-04-15 14:42 -0.88948 105.29104 32469 ft 460 kts 160°
2026-04-15 14:43 -0.91978 105.30116 32796 ft 458 kts 160°
2026-04-15 14:43 -0.94999 105.31125 33122 ft 456 kts 160°
2026-04-15 14:43 -0.98009 105.32133 33437 ft 455 kts 160°
2026-04-15 14:43 -1.01015 105.33139 33748 ft 453 kts 160°
2026-04-15 14:44 -1.03968 105.34126 34034 ft 452 kts 160°
2026-04-15 14:44 -1.06964 105.35128 34292 ft 452 kts 160°
2026-04-15 14:44 -1.09948 105.36126 34544 ft 451 kts 160°
2026-04-15 14:44 -1.12924 105.37122 34787 ft 450 kts 161°
2026-04-15 14:45 -1.15862 105.38104 35023 ft 449 kts 161°
2026-04-15 14:45 -1.18830 105.39096 35255 ft 449 kts 161°
2026-04-15 14:45 -1.21795 105.40089 35472 ft 449 kts 161°
2026-04-15 14:45 -1.24733 105.41070 35681 ft 449 kts 161°
2026-04-15 14:46 -1.27697 105.42058 35891 ft 448 kts 161°
2026-04-15 14:46 -1.30664 105.43051 36097 ft 448 kts 161°
2026-04-15 14:46 -1.33624 105.44043 36288 ft 448 kts 161°
2026-04-15 14:46 -1.36591 105.45037 36503 ft 448 kts 161°
2026-04-15 14:47 -1.39511 105.46015 36692 ft 447 kts 161°
2026-04-15 14:47 -1.42472 105.47009 36871 ft 448 kts 161°
2026-04-15 14:47 -1.45433 105.48002 36926 ft 448 kts 161°
2026-04-15 14:48 -1.51326 105.49971 36926 ft 448 kts 160°
2026-04-15 14:48 -1.57251 105.51949 36926 ft 448 kts 160°
2026-04-15 14:49 -1.63170 105.53936 36926 ft 448 kts 160°
2026-04-15 14:49 -1.69067 105.55916 36926 ft 448 kts 160°
2026-04-15 14:50 -1.74953 105.57881 36928 ft 448 kts 160°
2026-04-15 14:50 -1.80879 105.59857 36929 ft 448 kts 160°
2026-04-15 14:51 -1.86796 105.61833 36929 ft 448 kts 160°
2026-04-15 14:51 -1.92725 105.63823 36935 ft 449 kts 160°
2026-04-15 14:52 -1.98617 105.65796 36942 ft 449 kts 160°
2026-04-15 14:52 -2.04549 105.67785 36941 ft 448 kts 160°
2026-04-15 14:53 -2.10474 105.69775 36942 ft 448 kts 160°
2026-04-15 14:53 -2.16366 105.71746 36941 ft 448 kts 160°
2026-04-15 14:54 -2.22273 105.73719 36934 ft 448 kts 160°
2026-04-15 14:54 -2.28200 105.75705 36933 ft 449 kts 160°
2026-04-15 14:55 -2.34145 105.77694 36937 ft 449 kts 160°
2026-04-15 14:55 -2.40047 105.79673 36939 ft 449 kts 160°
2026-04-15 14:56 -2.46001 105.81671 36941 ft 449 kts 160°
2026-04-15 14:56 -2.51908 105.83646 36933 ft 449 kts 160°
2026-04-15 14:57 -2.57852 105.85635 36931 ft 449 kts 160°
2026-04-15 14:57 -2.63781 105.87623 36929 ft 449 kts 160°
2026-04-15 14:58 -2.69674 105.89602 36929 ft 449 kts 160°
2026-04-15 14:58 -2.75614 105.91591 36930 ft 449 kts 160°
2026-04-15 14:59 -2.81514 105.93568 36928 ft 449 kts 160°
2026-04-15 14:59 -2.87451 105.95561 36929 ft 449 kts 160°
2026-04-15 15:00 -2.93364 105.97542 36927 ft 449 kts 160°
2026-04-15 15:00 -2.99289 105.99527 36938 ft 448 kts 160°
2026-04-15 15:01 -3.05214 106.01513 36933 ft 448 kts 160°
2026-04-15 15:01 -3.11093 106.03485 36929 ft 448 kts 160°
2026-04-15 15:02 -3.17019 106.05478 36926 ft 448 kts 160°
2026-04-15 15:02 -3.22896 106.07453 36931 ft 448 kts 160°
2026-04-15 15:03 -3.28844 106.09450 36931 ft 448 kts 160°
2026-04-15 15:03 -3.34736 106.11420 36931 ft 448 kts 160°
2026-04-15 15:04 -3.40663 106.13408 36937 ft 448 kts 160°
2026-04-15 15:04 -3.46551 106.15386 36937 ft 448 kts 160°
2026-04-15 15:05 -3.52487 106.17378 36937 ft 448 kts 160°
2026-04-15 15:05 -3.58377 106.19355 36937 ft 448 kts 160°
2026-04-15 15:06 -3.67273 106.22339 36939 ft 448 kts 160°
2026-04-15 15:06 -3.73196 106.24329 36931 ft 449 kts 160°
2026-04-15 15:07 -3.79095 106.26312 36927 ft 449 kts 160°
2026-04-15 15:07 -3.85038 106.28307 36927 ft 450 kts 160°
2026-04-15 15:08 -3.90990 106.30304 36930 ft 450 kts 160°
2026-04-15 15:08 -3.96906 106.32292 36928 ft 450 kts 160°
2026-04-15 15:09 -4.02866 106.34301 36928 ft 450 kts 160°
2026-04-15 15:09 -4.08775 106.36288 36928 ft 450 kts 160°
2026-04-15 15:10 -4.14724 106.38283 36931 ft 450 kts 160°
2026-04-15 15:10 -4.20679 106.40289 36933 ft 450 kts 160°
2026-04-15 15:11 -4.23620 106.41282 36731 ft 451 kts 160°
2026-04-15 15:11 -4.26596 106.42286 36483 ft 451 kts 160°
2026-04-15 15:11 -4.29577 106.43288 36235 ft 451 kts 160°
2026-04-15 15:11 -4.32553 106.44287 35998 ft 451 kts 160°
2026-04-15 15:12 -4.35544 106.45291 35767 ft 451 kts 160°
2026-04-15 15:12 -4.38487 106.46279 35522 ft 452 kts 160°
2026-04-15 15:12 -4.41488 106.47286 34841 ft 455 kts 160°
2026-04-15 15:12 -4.44513 106.48305 33992 ft 460 kts 160°
2026-04-15 15:13 -4.47531 106.49322 32967 ft 466 kts 160°
2026-04-15 15:13 -4.50623 106.50359 32013 ft 469 kts 160°
2026-04-15 15:13 -4.53747 106.51408 31005 ft 474 kts 160°
2026-04-15 15:13 -4.56879 106.52464 30324 ft 471 kts 160°
2026-04-15 15:14 -4.59936 106.53496 29642 ft 467 kts 160°
2026-04-15 15:14 -4.63004 106.54533 28966 ft 462 kts 160°
2026-04-15 15:14 -4.66040 106.55559 28325 ft 457 kts 160°
2026-04-15 15:14 -4.69038 106.56570 27684 ft 451 kts 160°
2026-04-15 15:15 -4.72005 106.57569 27066 ft 447 kts 160°
2026-04-15 15:15 -4.74945 106.58557 26445 ft 443 kts 160°
2026-04-15 15:15 -4.77819 106.59520 25844 ft 439 kts 160°
2026-04-15 15:15 -4.80716 106.60491 25233 ft 436 kts 160°
2026-04-15 15:16 -4.83571 106.61452 24806 ft 420 kts 160°
2026-04-15 15:16 -4.86259 106.62384 24421 ft 399 kts 156°
2026-04-15 15:16 -4.88728 106.63506 24091 ft 392 kts 154°
2026-04-15 15:16 -4.91205 106.64646 23609 ft 391 kts 154°
2026-04-15 15:17 -4.93694 106.65782 23012 ft 390 kts 154°
2026-04-15 15:17 -4.96132 106.66892 22456 ft 388 kts 154°
2026-04-15 15:17 -4.98574 106.68005 22036 ft 383 kts 154°
2026-04-15 15:17 -5.00993 106.69108 21551 ft 381 kts 154°
2026-04-15 15:18 -5.03400 106.70208 21058 ft 379 kts 154°
2026-04-15 15:18 -5.05776 106.71295 20467 ft 371 kts 154°
2026-04-15 15:18 -5.08113 106.72363 19726 ft 366 kts 154°
2026-04-15 15:18 -5.10439 106.73425 19000 ft 373 kts 154°
2026-04-15 15:19 -5.12806 106.74507 18519 ft 373 kts 154°
2026-04-15 15:19 -5.15171 106.75590 18051 ft 372 kts 154°
2026-04-15 15:19 -5.17521 106.76664 17569 ft 370 kts 155°
2026-04-15 15:19 -5.19861 106.77729 17115 ft 367 kts 155°
2026-04-15 15:20 -5.22265 106.78580 16678 ft 365 kts 168°
2026-04-15 15:20 -5.24743 106.78949 16239 ft 363 kts 171°
2026-04-15 15:20 -5.27246 106.79297 15809 ft 361 kts 171°
2026-04-15 15:20 -5.29749 106.79643 15168 ft 365 kts 171°
2026-04-15 15:21 -5.32281 106.79992 14616 ft 367 kts 171°
2026-04-15 15:21 -5.34777 106.80336 14199 ft 364 kts 171°
2026-04-15 15:21 -5.37271 106.80679 13457 ft 358 kts 171°
2026-04-15 15:21 -5.39726 106.81016 12615 ft 353 kts 171°
2026-04-15 15:22 -5.42119 106.81346 12125 ft 339 kts 171°
2026-04-15 15:22 -5.44386 106.81658 11607 ft 328 kts 171°
2026-04-15 15:22 -5.46659 106.81971 10948 ft 323 kts 171°
2026-04-15 15:22 -5.48874 106.82276 10266 ft 320 kts 172°
2026-04-15 15:23 -5.51009 106.82581 10106 ft 304 kts 171°
2026-04-15 15:23 -5.53095 106.82889 9924 ft 300 kts 171°
2026-04-15 15:23 -5.55152 106.83199 9795 ft 298 kts 171°
2026-04-15 15:23 -5.57199 106.83508 9246 ft 294 kts 171°
2026-04-15 15:24 -5.59193 106.83807 8631 ft 291 kts 171°
2026-04-15 15:24 -5.61192 106.84107 8031 ft 289 kts 171°
2026-04-15 15:24 -5.63182 106.84401 7671 ft 287 kts 171°
2026-04-15 15:24 -5.65155 106.84693 7325 ft 285 kts 171°
2026-04-15 15:25 -5.67112 106.84984 6965 ft 283 kts 171°
2026-04-15 15:25 -5.69057 106.85274 6611 ft 281 kts 171°
2026-04-15 15:25 -5.70991 106.85562 6242 ft 279 kts 171°
2026-04-15 15:25 -5.72894 106.85845 5867 ft 278 kts 171°
2026-04-15 15:26 -5.74809 106.86130 5484 ft 276 kts 171°
2026-04-15 15:26 -5.76684 106.86408 5107 ft 274 kts 171°
2026-04-15 15:26 -5.78565 106.86687 4732 ft 272 kts 171°
2026-04-15 15:26 -5.80439 106.86965 4346 ft 271 kts 171°
2026-04-15 15:27 -5.82298 106.87242 3964 ft 269 kts 171°
2026-04-15 15:27 -5.83526 106.87425 3699 ft 268 kts 171°
2026-04-15 15:27 -5.85972 106.87790 3160 ft 267 kts 171°
2026-04-15 15:27 -5.87182 106.87969 3035 ft 260 kts 171°
2026-04-15 15:28 -5.88921 106.88227 3012 ft 243 kts 171°
2026-04-15 15:28 -5.90537 106.88466 3014 ft 227 kts 171°
2026-04-15 15:28 -5.92517 106.88761 3013 ft 207 kts 171°
2026-04-15 15:28 -5.93967 106.88976 3024 ft 220 kts 171°
2026-04-15 15:29 -5.94974 106.89096 3015 ft 216 kts 179°
2026-04-15 15:29 -5.96415 106.88819 2895 ft 209 kts 205°
2026-04-15 15:29 -5.97575 106.87987 2756 ft 203 kts 227°
2026-04-15 15:29 -5.98918 106.86675 2465 ft 203 kts 220°
2026-04-15 15:30 -5.99636 106.86066 2392 ft 195 kts 219°
2026-04-15 15:30 -6.00646 106.85229 2267 ft 185 kts 219°
2026-04-15 15:30 -6.01610 106.84425 2135 ft 175 kts 220°
2026-04-15 15:30 -6.02515 106.83664 2056 ft 163 kts 220°
2026-04-15 15:31 -6.03368 106.82944 2007 ft 157 kts 220°
2026-04-15 15:31 -6.04139 106.82193 2006 ft 155 kts 232°
2026-04-15 15:31 -6.04678 106.81254 2008 ft 155 kts 249°
2026-04-15 15:31 -6.05078 106.80248 2010 ft 155 kts 248°
2026-04-15 15:32 -6.05477 106.79256 2009 ft 155 kts 248°
2026-04-15 15:32 -6.05880 106.78252 2009 ft 155 kts 248°
2026-04-15 15:32 -6.06284 106.77245 2009 ft 155 kts 248°
2026-04-15 15:32 -6.06687 106.76236 1966 ft 157 kts 248°
2026-04-15 15:33 -6.07087 106.75236 1737 ft 155 kts 248°
2026-04-15 15:33 -6.07487 106.74237 1529 ft 154 kts 248°
2026-04-15 15:33 -6.07884 106.73244 1331 ft 153 kts 248°
2026-04-15 15:33 -6.08277 106.72250 1111 ft 152 kts 249°
2026-04-15 15:34 -6.08659 106.71258 915 ft 151 kts 248°
2026-04-15 15:34 -6.09042 106.70288 708 ft 151 kts 247°
2026-04-15 15:34 -6.09439 106.69313 540 ft 151 kts 248°
2026-04-15 15:34 -6.09827 106.68333 352 ft 150 kts 247°
2026-04-15 15:35 -6.10219 106.67361 161 ft 149 kts 247°
2026-04-15 15:35 -6.10602 106.66404 38 ft 140 kts 248°
2026-04-15 15:35 -6.10903 106.65649 38 ft 76 kts 248°
2026-04-15 15:35 -6.11067 106.65245 34 ft 56 kts 248°
2026-04-15 15:36 -6.11183 106.64951 34 ft 26 kts 248°
2026-04-15 15:36 -6.11264 106.64826 36 ft 16 kts 230°
2026-04-15 15:36 -6.11337 106.64758 37 ft 13 kts 220°
2026-04-15 15:36 -6.11397 106.64714 38 ft 12 kts 209°
2026-04-15 15:37 -6.11497 106.64719 38 ft 15 kts 158°
2026-04-15 15:37 -6.11542 106.64765 39 ft 8 kts 96°
2026-04-15 15:37 -6.11527 106.64820 38 ft 9 kts 70°
2026-04-15 15:37 -6.11506 106.64878 38 ft 8 kts 70°
2026-04-15 15:38 -6.11473 106.64960 38 ft 17 kts 68°
2026-04-15 15:38 -6.11428 106.65065 39 ft 13 kts 66°
2026-04-15 15:38 -6.11463 106.65121 39 ft 12 kts 153°
2026-04-15 15:38 -6.11501 106.65137 40 ft 10 kts 157°
2026-04-15 15:39 -6.11576 106.65148 39 ft 12 kts 200°
2026-04-15 15:39 -6.11634 106.65086 39 ft 15 kts 230°
2026-04-15 15:39 -6.11722 106.65000 40 ft 20 kts 218°
2026-04-15 15:39 -6.11816 106.64962 39 ft 13 kts 160°
2026-04-15 15:40 -6.11896 106.64997 38 ft 13 kts 158°
2026-04-15 15:40 -6.11973 106.65037 36 ft 12 kts 148°
2026-04-15 15:40 -6.12031 106.65074 35 ft 6 kts 147°
2026-04-15 15:40 -6.12042 106.65082 37 ft 0 kts 147°